This is the latest recevied weather packets stored in our database for station/object WW3TRG. If no packets are shown the sender has not sent any weather packets the latest 10 day(s).
| Time | Temp. | Humidity | Pressure | Rain* | Wind** | Luminosity | Snow |
|---|---|---|---|---|---|---|---|
| 1777651746 | 15° C | 51% | 1011.7 hPa | 0 mm | - | 586 W/m² | - |
| 1777651442 | 15.56° C | 57% | 1012 hPa | 0 mm | - | 717 W/m² | - |
| 1777651140 | 13.89° C | 52% | 1012 hPa | 0 mm | - | 628 W/m² | - |
| 1777650836 | 13.89° C | 50% | 1012.4 hPa | 0 mm | - | 603 W/m² | - |
| 1777650533 | 14.44° C | 52% | 1012.4 hPa | 0 mm | - | 598 W/m² | - |
| 1777650231 | 14.44° C | 48% | 1012.6 hPa | 0 mm | - | 514 W/m² | - |
| 1777649928 | 14.44° C | 55% | 1012.3 hPa | 0 mm | - | 613 W/m² | - |
| 1777649625 | 13.89° C | 51% | 1012.5 hPa | 0 mm | - | 637 W/m² | - |
| 1777649320 | 13.33° C | 56% | 1012.6 hPa | 0 mm | - | 580 W/m² | - |
| 1777649018 | 13.89° C | 54% | 1012.3 hPa | 0 mm | - | 637 W/m² | - |
| 1777648716 | 13.89° C | 54% | 1012.6 hPa | 0 mm | - | 667 W/m² | - |
| 1777648411 | 13.33° C | 55% | 1012.6 hPa | 0 mm | - | 607 W/m² | - |
| 1777648108 | 13.89° C | 65% | 1012.6 hPa | 0 mm | - | 591 W/m² | - |
| 1777647805 | 13.33° C | 56% | 1012.6 hPa | 0 mm | - | 736 W/m² | - |
| 1777647501 | 13.33° C | 60% | 1012.7 hPa | 0 mm | - | 632 W/m² | - |
| 1777647198 | 12.78° C | 61% | 1012.7 hPa | 0 mm | - | 651 W/m² | - |
| 1777646895 | 12.78° C | 61% | 1012.9 hPa | 0 mm | - | 624 W/m² | - |
| 1777646590 | 12.78° C | 60% | 1013 hPa | 0 mm | - | 664 W/m² | - |
| 1777646287 | 12.78° C | 65% | 1012.9 hPa | 0 mm | - | 581 W/m² | - |
| 1777645984 | 12.22° C | 65% | 1012.8 hPa | 0 mm | - | 602 W/m² | - |
| 1777645681 | 11.67° C | 64% | 1012.9 hPa | 0 mm | - | 568 W/m² | - |
| 1777645376 | 12.22° C | 66% | 1012.9 hPa | 0 mm | - | 596 W/m² | - |
| 1777645072 | 12.78° C | 67% | 1012.8 hPa | 0 mm | - | 510 W/m² | - |
| 1777644769 | 12.22° C | 69% | 1012.8 hPa | 0 mm | - | 539 W/m² | - |
| 1777644467 | 11.67° C | 68% | 1012.9 hPa | 0 mm | - | 498 W/m² | - |
* Rain latest hour (hover to see other rain measurements)
** Current wind speed in m/s (hover to see current wind gust speed)